Location: Unspecified
(45.0173°N, 35.2345°E)
Time: 16:36:07
(UTC+02:00)

ISS - Pass Details

Date: 24 January 2026
Orbit: 414 x 429 km, 51.6° (Epoch: 8 February)

Event Time Altitude Azimuth Distance (km) Brightness Sun altitude
Rises 18:58:04 0° 300° (WNW) 2,369 1.0 -25.0°
Reaches altitude 10° 19:00:10 10° 302° (WNW) 1,506 -0.2 -25.4°
Enters shadow 19:01:42 25° 305° (NW) 899 -1.6 -25.7°
